Flag for South Africa Weather past 2 weeks in Stellenbosch, South Africa

Now
46 °F

Clear.


Feels Like: 44 °F
Forecast: 37 / 67 °F
Wind: 5 mph from South

Location: Cape Town International Airport

Current Time: Jul 2, 2015 at 6:13:36 AM

Latest Report: Jul 2, 2015 at 5:00 AM


Visibility: 10 mi

Pressure: 30.21 "Hg

Humidity: 93%

Dew point: 45 °F

Location of StellenboschLocation

Historic Weather in Stellenbosch — Graph

°F

Stellenbosch temperature yesterday

Maximum temperature yesterday: 61 °F (at 12:00 PM)
Minimum temperature yesterday: 52 °F (at 8:00 AM)
Average temperature yesterday: 56 °F

Past Weeks' High & Low Weather Summary

 TemperatureHumidityPressure
High72 °F (Jun 20, 1:00 PM)100% (Jun 17, 11:00 PM)30.48 "Hg (Jun 17, 11:00 PM)
Low41 °F (Jun 20, 5:00 AM)41% (Jun 20, 1:00 PM)29.86 "Hg (Jun 23, 9:00 PM)
Average53 °F86%30.22 "Hg
* Reported Jun 17 5:00 AM — Jul 2 5:00 AM, Stellenbosch, Weather by CustomWeather, © 2015

Note: Actual official high and low records may vary slightly from our data, if they occured in-between our weather recording intervals... More about our weather records

Advertising

Stellenbosch weather history for previous 24 hours

 ConditionsComfort  
Time TempWeatherWind HumidityBarometerVisibility
5:00 AM
Thu, Jul 2
46 °FClear.5 mph93%30.21 "Hg10 mi
4:00 AM50 °FClear.5 mph88%30.24 "Hg10 mi
3:00 AM50 °FPassing clouds.7 mph100%30.24 "HgN/A
2:00 AM50 °FClear.8 mph94%30.24 "Hg10 mi
1:00 AM52 °FClear.8 mph94%30.27 "Hg10 mi
12:00 AM52 °FClear.7 mph94%30.27 "Hg10 mi
11:00 PM
Wed, Jul 1
52 °FClear.9 mph94%30.27 "Hg10 mi
10:00 PM52 °FPassing clouds.7 mph94%30.27 "HgN/A
9:00 PM54 °FClear.7 mph94%30.27 "Hg10 mi
8:00 PM54 °FClear.7 mph94%30.27 "Hg10 mi
7:00 PM55 °FPassing clouds.8 mph88%30.27 "HgN/A
6:00 PM55 °FPassing clouds.14 mph82%30.27 "HgN/A
5:00 PM57 °FPassing clouds.16 mph77%30.24 "HgN/A
4:00 PM61 °FSunny.17 mph72%30.24 "Hg10 mi
3:00 PM61 °FSunny.13 mph68%30.24 "Hg10 mi
2:00 PM61 °FSunny.13 mph68%30.27 "Hg10 mi
1:00 PM61 °FSunny.8 mph68%30.30 "Hg10 mi
12:00 PM61 °FPassing clouds.12 mph63%30.30 "HgN/A
11:00 AM59 °FPassing clouds.12 mph68%30.33 "HgN/A
10:00 AM57 °FPassing clouds.8 mph82%30.33 "HgN/A
9:00 AM54 °FPassing clouds.8 mph88%30.30 "HgN/A
8:00 AM52 °FPassing clouds.9 mph94%30.30 "HgN/A
7:00 AM54 °FSunny.10 mph94%30.30 "Hg10 mi
6:00 AM54 °FPassing clouds.10 mph94%30.27 "HgN/A
Weather by CustomWeather, © 2015

See weather overviewHow to use our weather pages